星链-32838 (STARLINK-32838)

导读

STARLINK-32838是美国太空探索技术公司SpaceX星链星座的卫星成员,于2025年1月24日发射,NORAD编号为62827,国际编号为2025-018X,轨道倾角为93.5°,属于星链第二代星座部署批次。作为星链卫星互联网组网的组成部分,它将为全球提供宽带互联网接入服务,支持包括住宅通信、移动场景通信等多类应用,延续了星链卫星的技术配置,具备星座组网通信能力。

基本信息
目录编号:
62827
目录名称:
STARLINK-32838
国际标识:
2025-018X
轨道中心:
EARTH
卫星名称:
星链-32838
卫星全名:
星链-32838 (STARLINK-32838)
卫星状态:
已陨落 最后检测时间 2026-01-05
发射日期:
2025-01-24 UTC
国别 :
美国 (US)
星等 :
--
轨道信息
数据来源 国际轨道数据
星历时间: 2026-01-05T05:49:43+0800
轨道信息已过期160天
半长轴: 6610.527km
偏心率: 0.0000925
轨道倾角: 53.153°
近地点辐角 291.833°
升交点赤经 201.310°
平近点角 68.261°
近地点: 231.778km
远地点: 233.002km
周期: 89.148分钟
每日圈数: 16.152833
详细信息
固有亮度:
5
最大亮度:
2.5
卫星平台:
Starlink V1.0
覆盖范围:
全球
运营商:
太空探索技术公司
运营商所在国:
美国
制造商(研发单位):
太空探索技术公司
制造商所在国:
美国
使用方式:
暂无
卫星简介
Starlink 计划是 SpaceX 推出的全球卫星互联网项目,通过发射低轨道卫星,为全球尤其是偏远地区提供高速、低延迟的互联网服务。自 2019 年起,Starlink 已部署数千颗卫星,旨在缩小全球数字鸿沟,推动互联网普及。该项目还为军事、航空等行业提供通信支持,带来广泛经济效益。